Location: Berville
(49.1893°N, 2.0748°E)
Time: 05:45:54
(UTC+00:00)

Cosmos 2369 Rocket - Pass Details

Date: 08 February 2023
Orbit: 829 x 852 km, 71.0° (Epoch: 21 March)

Event Time Altitude Azimuth Distance (km) Brightness Sun altitude
Rises 18:54:45 0° 335° (NNW) 3,383 5.7 -19.2°
Reaches altitude 10° 18:58:11 10° 356° (N) 2,447 4.6 -19.7°
Enters shadow 19:01:25 16° 31° (NNE) 2,033 3.9 -20.2°
